Regional Weather Roundup
Issued by NWS

Home | Current Version | Previous Version | Graphics & Text | Print | Product List | Glossary On
Versions: 1 2 3 4 5 6 7 8 9 10 11 12 13 14 15 16 17 18 19 20 21 22 23 24 25 26 27 28 29 30 31 32 33 34 35 36 37 38 39 40 41 42 43 44 45 46 47 48 49 50
231
ASUS43 KLMK 252002
RWRKY
KENTUCKY REGIONAL WEATHER ROUNDUP
NATIONAL WEATHER SERVICE LOUISVILLE KY
400 PM EDT THU MAY 25 2017

NOTE "FAIR" INDICATES FEW OR NO CLOUDS BELOW 12,000 FEET
WITH NO SIGNIFICANT WEATHER AND/OR OBSTRUCTIONS TO VISIBILITY.

KYZ001>023-026-027-061>063-070>075-252100-
WESTERN AND SOUTH CENTRAL KENTUCKY

CITY           SKY/WX    TMP DP  RH WIND       PRES   REMARKS
PADUCAH        MOSUNNY   75  48  38 W12G23    29.74S
HENDERSON      PTSUNNY   72  57  59 W14       29.71S
OWENSBORO      PTSUNNY   72  58  61 W14G22      N/A
HOPKINSVILLE   MOSUNNY   72  52  50 W15G24    29.74R
BOWLING GREEN  PTSUNNY   73  57  57 W15G24    29.72R
GLASGOW        NOT AVBL
$$

KYZ024-025-028>034-038-045-046-053-252100-
NORTH CENTRAL KENTUCKY

CITY           SKY/WX    TMP DP  RH WIND       PRES   REMARKS
LOUISVILLE/SDF PTSUNNY   67  56  67 NW17G26   29.64R
LOUISVILLE/LOU CLOUDY    65  58  78 NW15G24   29.64R
FORT KNOX      PTSUNNY   66  56  71 W17G23    29.65R
$$

KYZ035>037-039>044-047>052-055>060-089>105-252100-
NORTHEAST KENTUCKY

CITY           SKY/WX    TMP DP  RH WIND       PRES   REMARKS
LEXINGTON      CLOUDY    59  55  87 W18G29    29.62R
COVINGTON      CLOUDY    61  58  90 NW20G26   29.56R
FRANKFORT      CLOUDY    60  55  83 W12G21    29.62R
$$

KYZ054-064>069-076>088-106>120-252100-
SOUTHEAST KENTUCKY

CITY           SKY/WX    TMP DP  RH WIND       PRES   REMARKS
JACKSON        RAIN      57  56  96 VRB3      29.59R FOG
LONDON         LGT RAIN  57  54  89 W17G25    29.66R FOG
SOMERSET       CLOUDY    59  55  88 W15G22    29.69R
MIDDLESBORO    DRIZZLE   60  56  87 SW9G17    29.68R
MONTICELLO     CLOUDY    66  56  70 W24G33    29.70S
$$





USA.gov is the U.S. government's official web portal to all federal, state and local government web resources and services.